User: anonymous   Login
Location: Vale
(35.4830°N, 81.3830°W)
Time: 13:40:21
(UTC-04:00)
Language:

Cosmos 2237 Rocket - Orbit

View from above orbital plane
View from above orbital plane
View from above satellite
View from above satellite

Ground track
Ground track

The orbit data is extracted from the following two-line orbital elements,

1 22566U 93016B   16176.84099376 -.00000240  00000-0 -99457-4 0  9993
2 22566  71.0079  97.0061 0012002 309.1666  50.8389 14.14925790200722
Epoch (UTC): 24 June 2016 20:11:01
Eccentricity: 0.0012002
inclination: 71.0079°
perigee height: 834 km
apogee height: 851 km
right ascension of ascending node: 97.0061°
argument of perigee: 309.1666°
revolutions per day: 14.14925790
mean anomaly at epoch: 50.8389°
orbit number at epoch: 20072

The dashed part of the orbit path shows where the satellite is in the earth's shadow,  

DLR